Regional Weather Roundup
Issued by NWS

Home | Current Version | Previous Version | Text Only | Print | Product List | Glossary Off
Versions: 1 2 3 4 5 6 7 8 9 10 11 12 13 14 15 16 17 18 19 20 21 22 23 24 25 26 27

000
ASUS45 KCYS 221710
RWRWY

WYOMING REGIONAL WEATHER ROUNDUP
NATIONAL WEATHER SERVICE CHEYENNE WY
1100 AM MDT SUN APR 22 2018

NOTE:  "FAIR" INDICATES FEW OR NO CLOUDS BELOW 12,000 FEET
WITH NO SIGNIFICANT WEATHER AND/OR OBSTRUCTIONS TO VISIBILITY.

WYZ001-221800-
YELLOWSTONE NATIONAL PARK

CITY           SKY/WX    TMP DP  RH WIND       PRES   REMARKS
LK YELLOWSTONE   N/A     40  24  53 VRB3      30.22F
W YELLOWSTONE  NOT AVBL

$$
WYZ002>013-054>058-071-098>099-221800-
NORTHERN WYOMING

CITY           SKY/WX    TMP DP  RH WIND       PRES   REMARKS
JACKSON        FAIR      51  28  41 VRB3      30.19F
CODY           FAIR      54  27  35 NE6       30.14F
GREYBULL       FAIR      55  32  41 VRB3      30.11F
WORLAND        FAIR      57  30  35 CALM      30.12F
SHERIDAN       FAIR      56  27  32 E8        30.14F
BUFFALO        FAIR      53  26  35 E7        30.17F
GILLETTE       FAIR      53  39  59 CALM      30.16S
HULETT         FAIR      54  36  50 NW3       30.16F
NEWCASTLE      FAIR      54  34  47 CALM      30.16F

$$
WYZ014>020-022>026-101>103-221800-
CENTRAL WYOMING

CITY           SKY/WX    TMP DP  RH WIND       PRES   REMARKS
BIG PINEY      FAIR      54  21  27 CALM      30.21F
PINEDALE       FAIR      54  25  32 NW13G20   30.21F
DUBOIS         FAIR      55  16  21 W16G24    30.16F
LANDER         FAIR      58  28  32 CALM      30.12F
RIVERTON       FAIR      56  30  37 E10       30.13F
CASPER         FAIR      53  37  54 VRB3      30.18F
DOUGLAS        FAIR      54  42  64 NW6       30.18F

$$
WYZ021-027>030-104>119-221800-
SOUTHERN WYOMING

CITY           SKY/WX    TMP DP  RH WIND       PRES   REMARKS
EVANSTON       FAIR      58  26  29 VRB5      30.22F
KEMMERER       FAIR      54  27  35 CALM      30.23F
FORT BRIDGER   FAIR      59  27  29 CALM      30.25F
ROCK SPRINGS   FAIR      56  19  23 VRB3      30.21F
DIXON          FAIR      56  33  42 SW9       30.24F
RAWLINS          N/A    N/A N/A N/A MISG      30.20F
SARATOGA       FAIR      55  30  38 SW5       30.22F
LARAMIE        FAIR      50  33  52 N5        30.22S
CHEYENNE       FAIR      54  32  43 N13G21    30.19R
TORRINGTON     CLOUDY    40  38  93 SE5       30.20S
PINE BLUFFS    FAIR      50  36  57 NW6       30.19S

$$




USA.gov is the U.S. government's official web portal to all federal, state and local government web resources and services.